Home   Weather   Decatur   Past weeks

Flag for USA Past Weather in Decatur, Illinois, USA — Yesterday and Last 2 Weeks

Now
64 °F

Sunny.


Feels Like: 64 °F
Forecast: 52 / 69 °F
Wind: 13 mph from Southwest

Location: Decatur Airport

Current Time: Feb 22, 2017 at 11:42:08 am

Latest Report: Feb 22, 2017 at 10:54 am


Visibility: 10 mi

Pressure: 29.81 "Hg

Humidity: 73%

Dew Point: 55 °F

Location of DecaturLocation

Past Weather in Decatur — Graph

°F

Decatur Temperature Yesterday

Maximum temperature yesterday: 62 °F (at 2:54 pm)
Minimum temperature yesterday: 51 °F (at 11:54 pm)
Average temperature yesterday: 58 °F

High & Low Weather Summary for the Past Weeks

 TemperatureHumidityPressure
High72 °F (Feb 20, 1:54 pm)100% (Feb 8, 1:27 pm)30.45 "Hg (Feb 8, 1:27 pm)
Low14 °F (Feb 9, 5:54 am)26% (Feb 17, 3:54 pm)29.41 "Hg (Feb 7, 9:54 am)
Average45 °F72%29.96 "Hg
* Reported Feb 7 9:54 am — Feb 22 9:54 am, Decatur, Weather by CustomWeather, © 2017

Note: Actual official high and low records may vary slightly from our data, if they occured in-between our weather recording intervals... More about our weather records

Advertising

Decatur Weather History for the Previous 24 Hours

Scroll right to see more
 ConditionsComfort  
Time TempWeatherWind HumidityBarometerVisibility
9:54 am
Wed, Feb 22
58 °FSunny.13 mph90%29.83 "Hg7 mi
9:28 am56 °FFog.13 mph93%29.83 "Hg5 mi
8:54 am53 °FFog.9 mph100%29.84 "Hg1 mi
8:38 am52 °FFog.10 mph100%29.84 "Hg0 mi
7:54 am50 °FFog.8 mph96%29.86 "Hg0 mi
6:54 am46 °FFog.3 mph100%29.86 "Hg0 mi
6:16 am43 °FFog.5 mph100%29.87 "Hg0 mi
5:54 am43 °FFog.3 mph97%29.88 "Hg0 mi
5:25 am43 °FFog.No wind100%29.88 "Hg0 mi
4:54 am42 °FFog.No wind100%29.87 "Hg0 mi
4:10 am47 °FFog.No wind93%29.87 "Hg0 mi
3:54 am47 °FFog.5 mph100%29.87 "Hg0 mi
3:31 am48 °FFog.5 mph96%29.88 "Hg0 mi
2:54 am51 °FFog.5 mph92%29.87 "Hg4 mi
1:54 am52 °FFog.7 mph93%29.87 "Hg5 mi
12:54 am53 °FFog.8 mph93%29.86 "Hg6 mi
11:54 pm
Tue, Feb 21
51 °FFog.7 mph92%29.86 "Hg6 mi
10:54 pm54 °FFog.7 mph90%29.88 "Hg6 mi
9:54 pm55 °FPassing clouds.7 mph90%29.91 "Hg8 mi
8:54 pm54 °FFog.5 mph93%29.92 "Hg4 mi
7:54 pm55 °FFog.3 mph93%29.93 "Hg4 mi
6:54 pm59 °FOvercast.No wind87%29.93 "Hg8 mi
5:54 pm59 °FPassing clouds.3 mph87%29.92 "Hg9 mi
4:54 pm62 °FOvercast.No wind78%29.90 "Hg10 mi
3:54 pm62 °FSunny.3 mph78%29.90 "Hg10 mi
3:26 pm62 °FBroken clouds.5 mph78%29.91 "Hg10 mi
2:54 pm62 °FOvercast.No wind75%29.91 "Hg10 mi
1:54 pm61 °FOvercast.3 mph78%29.91 "Hg10 mi
1:18 pm61 °FMore clouds than sun.3 mph78%29.92 "Hg10 mi
12:54 pm60 °FOvercast.No wind80%29.92 "Hg9 mi
11:54 am59 °FMostly cloudy.No wind84%29.95 "Hg7 mi
Weather by CustomWeather, © 2017

See weather overviewHow to use our weather pages